カタログに戻る

STARLINK-37736

運用中通信SSO
NORAD 69226·PAYLOAD·🇺🇸 United States

打ち上げ May 26, 2026 から Vandenberg Space Force Base

Loading…

次のパス (今後24時間)

TLE

最新Source: CelesTrak SupGP

元期: Sep 14, 2026, 15:55 UTC

1 69226C 26115R   26257.66368056 -.00059611  00000+0 -18507-2 0  2575
2 69226  97.2832 273.8685 0001672  94.9856  48.6200 15.33465584    19

AllMySatでSTARLINK-37736をリアルタイム追跡

Download on the App Store